Regional Weather Roundup
Issued by NWS

Home | Current Version | Previous Version | Text Only | Print | Product List | Glossary Off
Versions: 1 2 3 4 5 6 7 8 9 10 11 12 13 14 15 16 17 18 19 20 21 22 23 24 25 26 27 28 29 30 31 32 33 34 35 36 37 38 39 40 41 42 43 44 45 46 47 48 49 50

534
ASUS43 KOAX 181010
RWRNE

WEATHER ROUNDUP FOR NEBRASKA
NATIONAL WEATHER SERVICE OMAHA NE
400 AM CST MON DEC 18 2017

NOTES: SATELLITE DATA IS BEING USED TO AUGMENT CLOUD COVER ABOVE
       12000 FEET.
       "FAIR" INDICATES FEW OR NO CLOUDS BELOW 12,000 FEET WITH NO
       SIGNIFICANT WEATHER AND/OR OBSTRUCTIONS TO VISIBILITY.


NEZ001>004-019>022-054>056-181100-
NEBRASKA PANHANDLE

CITY           SKY/WX    TMP DP  RH WIND       PRES   REMARKS
SCOTTSBLUFF    CLOUDY    19  12  74 CALM      29.92F
ALLIANCE       CLOUDY    16  11  80 W6        29.90F WCI   7
CHADRON        CLOUDY    17  13  84 CALM      29.90S
GORDON         FAIR      26  17  70 W3        29.87F
KIMBALL        CLOUDY    22  18  85 W12       29.94F WCI  10
SIDNEY         CLOUDY    19  17  92 W8        29.95F WCI   9
$$

NEZ057>060-069>072-079>082-181100-
SOUTHWEST NEBRASKA

CITY           SKY/WX    TMP DP  RH WIND       PRES   REMARKS
NORTH PLATTE   CLOUDY    23  19  85 NW8       29.95R WCI  14
IMPERIAL       CLOUDY    25  21  85 W8        29.97S WCI  16
LEXINGTON      CLOUDY    25  21  84 W8        29.95S WCI  17
MCCOOK         CLOUDY    22  20  92 W14       29.99S WCI   9
OGALLALA       CLEAR     22  19  89 SW7       29.96S WCI  13
$$

NEZ005>010-023>029-035>040-094-181100-
NORTH CENTRAL NEBRASKA

CITY           SKY/WX    TMP DP  RH WIND       PRES   REMARKS
VALENTINE      CLOUDY    26  22  84 SW8       29.86S WCI  18
AINSWORTH      PTCLDY    30  26  84 W7        29.87R WCI  23
BROKEN BOW     CLEAR     30  22  72 W13       29.91S WCI  20
O`NEILL        CLOUDY    31  28  87 W12       29.85S WCI  22
ORD            CLEAR     30  25  81 W12       29.89S WCI  20
THEDFORD       CLOUDY    29  21  72 W8        29.90S WCI  21
$$

NEZ041-046>049-061>064-073>077-083>087-181100-
SOUTH CENTRAL NEBRASKA

CITY           SKY/WX    TMP DP  RH WIND       PRES   REMARKS
GRAND ISLAND   CLEAR     31  28  89 W18       29.92F WCI  19
AURORA         CLEAR     30  28  90 SW13      29.92F WCI  20
HASTINGS       CLEAR     29  25  85 SW9       29.94F WCI  20
HEBRON         CLOUDY    28  27  93 SW6       30.00S WCI  22
HOLDREGE       CLEAR     30  26  86 W14       29.95F WCI  19
KEARNEY        CLEAR     29  25  85 W14       29.94F WCI  18
YORK           CLEAR     25  25 100 SW9       29.93F WCI  15
$$

NEZ011>018-030>034-042>045-181100-
NORTHEAST NEBRASKA

CITY           SKY/WX    TMP DP  RH WIND       PRES   REMARKS
NORFOLK        CLEAR     30  27  88 SW12      29.86F WCI  20
ALBION         CLEAR     32  28  85 W5        29.88S WCI  28
BLAIR          CLOUDY    26  24  93 S8        29.93F FOG     WCI  17
COLUMBUS       CLEAR     18  16  92 SW6       29.91F WCI  10
FREMONT        CLOUDY    27  26  94 CALM      29.93F
TEKAMAH        CLOUDY    17  14  88 SE7       29.93F FOG     WCI   8
WAYNE          CLEAR     26  25  96 S8        29.87F WCI  18
$$

NEZ050>053-065>068-078-088>093-181100-
SOUTHEAST NEBRASKA

CITY           SKY/WX    TMP DP  RH WIND       PRES   REMARKS
LINCOLN        CLEAR     26  24  92 S7        29.97F WCI  18
OMAHA EPPLEY   FOG       27  22  81 S9        29.96F VSB 3/4 WCI  18
BEATRICE       CLEAR     27  26  96 S5        30.00S WCI  21
FALLS CITY     CLEAR     32  32 100 SW7       30.00F FOG     WCI  26
NEBRASKA CITY  PTCLDY    29  29 100 SW12      29.98F FOG     WCI  19
PLATTSMOUTH    CLEAR     28  27  99 S5        29.96F FOG     WCI  22
$$

NEZ044-045-051>053-067-181100-
OMAHA AREA

CITY           SKY/WX    TMP DP  RH WIND       PRES   REMARKS
OMAHA EPPLEY   FOG       27  22  81 S9        29.96F VSB 3/4 WCI  18
BLAIR          CLOUDY    26  24  93 S8        29.93F FOG     WCI  17
FREMONT        CLOUDY    27  26  94 CALM      29.93F
MILLARD        CLOUDY    27  26  94 CALM      29.96S FOG
OFFUTT AFB     FOG       20  18  91 CALM      29.96F VSB 1/2
PLATTSMOUTH    CLEAR     28  27  99 S5        29.96F FOG     WCI  22
WAHOO          FAIR      20  19  93 S7        29.94F WCI  11
$$




USA.gov is the U.S. government's official web portal to all federal, state and local government web resources and services.